MOZ.5/SAFIR/RUBIN 5/SL-8

Satellite information

Favourite Embed

Satellite Type and Status

PAYLOADIN ORBIT

Key statistics

Satellite MOZ.5/SAFIR/RUBIN 5/SL-8 at a glance.

Uptime

7303

Days in orbit

Revolutions

≈ 14.6

Per day

Orbit

SSO

Sun Synchronous Orbit

Inclination

98.3

Latest

Satellite identification and parameters

Extended collection of information and parameters for MOZ.5/SAFIR/RUBIN 5/SL-8.

Object identification

Identified? True

Debris? False

Object name: MOZ.5/SAFIR/RUBIN 5/SL-8

International designator: 2005-043G

Object number (NORAD): 28898

Object ID (CCSDS): 28898

Country: GERMANY (GER)

Current information (Y/N): Y

RCS size: LARGE

Orbital parameters

Period: 98.363 minutes

Inclination: 98.3218 deg

SMA: 7058.548 km

Apoapsis: 693.443 km

Periapsis: 667.382 km

RAAN: 74.5442 deg

Eccentricy: 0.00184604

Argument of periapsis: 0.1093 deg

Mean anomaly: 0.011 deg

Mean motion: 14.63961768 rev/day

Mean motion (dot): 0.00001052 rev/day2

B* drag term: 0.0002099227 1/REarth

Two-line elements (TLE)

Creation date: Oct. 25, 2025, 3:11 a.m.

Reference frame: TEME

Reference center: EARTH

Epoch: Oct. 24, 2025, 11:05 p.m. UTC

TLE line 0: 0 MOZ.5/SAFIR/RUBIN 5/SL-8

TLE line 1: 1 28898U 05043G 25297.96246135 .00001052 00000-0 20992-3 0 9991

TLE line 2: 2 28898 98.3218 74.5442 0018460 0.1093 0.0110 14.63961768688832

Live tracking on map

Real-time ground track for satellite MOZ.5/SAFIR/RUBIN 5/SL-8.

In-orbit conjunctions

A list of the most updated potential collisions computed for object MOZ.5/SAFIR/RUBIN 5/SL-8.

Target Orbit TCA Probability of collision Miss distance Type
IRIDIUM 33 DEB LEO 2025-05-16 11:39:36 0.0001446681 509.0 (m) DEBRIS
CZ-6A DEB LEO 2024-12-19 21:45:54 0.0002633657 740.0 (m) DEBRIS
THOR ABLESTAR DEB LEO 2024-11-10 22:25:30 0.0002554824 57.0 (m) DEBRIS

Associated space launch

Civilian surveillance satellite.

MOZ.5/SAFIR/RUBIN 5/SL-8 was lifted into orbit during the mission ‘Kosmos-3M | Beijing-1’, on board a Kosmos-3M space rocket.

The launch took place on Oct. 27, 2005, 6:52 a.m. from 132/1 (132L).

For more information about the launch, click the button.

Launch to space Kosmos-3M | Beijing-1
Kosmos-3M | Beijing-1

Agency: N/A

Status: Launch Successful

Launch date: Oct. 27, 2005, 6:52 a.m. UTC

Rocket: Kosmos-3M

Launch pad: 132/1 (132L)

Location: Plesetsk Cosmodrome, Russian Federation

...

Latest news about this satellite

There are no fresh news available about this satellite. Check back as we update our databases every day.


Newsletter sign-up

Weekly statistics, charts and insights to help you stay on top of the space industry.